Location: Warner Observatory
(35.1353°N, 89.5455°W)
Time: 05:00:46
(UTC-05:00)

Amateur Radio Satellites - All Passes

Search period start: 22 May 2015 04:30
Search period end: 23 May 2015 04:30
Location: Warner Observatory, 35.1353°N, 89.5455°W

Satellite Date Start Highest point End Downlink Frequencies (MHz)
Time Altitude Azimuth
BEESAT 2 22 May 04:44:06 04:48:04 48° 57° (ENE) 04:52:00 435.950
SO-50 22 May 04:47:35 04:52:13 81° 300° (WNW) 04:57:03 436.795
HORYU 2 22 May 05:00:14 05:04:38 60° 285° (WNW) 05:08:57 437.375
MOZHAYETS 4 22 May 05:02:36 05:07:11 73° 259° (W) 05:11:46
PHONESAT 2.4 22 May 05:06:57 05:10:18 48° 152° (SSE) 05:13:39 2401.200-2431.200
JAS-2 22 May 05:21:17 05:26:20 52° 287° (WNW) 05:31:24 435.910
Cosmos 2499 22 May 05:22:04 05:24:15 11° 278° (W) 05:25:51 435.465 / 435.565
AIST 2 22 May 05:36:01 05:40:07 49° 57° (ENE) 05:44:08 435.215
BEESAT 3 22 May 05:41:15 05:44:45 27° 247° (WSW) 05:48:07 437.485
VERMONT LUNAR 22 May 05:45:34 05:48:34 36° 349° (N) 05:51:35 437.305
Cosmos 2491 22 May 05:47:21 05:51:44 15° 62° (ENE) 05:56:44 435.465 / 435.565
CUTE-I 22 May 05:54:34 05:55:12 10° 88° (E) 05:56:16 437.470
M-CUBED/EXP-1 PRIME 22 May 06:02:54 06:05:02 14° 65° (ENE) 06:07:18 437.505
Cubesat XI-IV 22 May 06:11:05 06:14:24 17° 92° (E) 06:17:58 437.490
AUBIESAT-1 22 May 06:15:51 06:18:32 17° 66° (ENE) 06:21:15 437.475
AO-7 22 May 06:23:31 06:31:01 37° 296° (WNW) 06:38:21 29.400- 29.500
BEESAT 2 22 May 06:24:11 06:25:47 12° 251° (WSW) 06:27:06 435.950
CUBESAT XI-V 22 May 06:25:47 06:30:18 64° 76° (ENE) 06:34:52 437.345
SO-50 22 May 06:32:32 06:33:40 11° 320° (NW) 06:34:34 436.795
YUBILEINY 22 May 06:39:23 06:43:10 14° 81° (E) 06:47:39 435.215
PHONESAT 2.4 22 May 06:45:08 06:48:28 43° 347° (NNW) 06:51:48 2401.200-2431.200
PRISM 22 May 06:59:19 07:03:23 74° 77° (ENE) 07:07:29 437.425
STRAND 1 22 May 07:08:25 07:13:29 77° 76° (ENE) 07:18:36 437.568
AIST 2 22 May 07:16:35 07:18:17 12° 251° (WSW) 07:19:46 435.215
VERMONT LUNAR 22 May 07:23:18 07:26:12 31° 6° (N) 07:29:08 437.305
ISS 22 May 07:29:04 07:31:08 16° 29° (NNE) 07:33:16 145.825
CUTE-I 22 May 07:30:36 07:35:58 78° 285° (WNW) 07:41:20 437.470
M-CUBED/EXP-1 PRIME 22 May 07:35:14 07:39:37 48° 255° (WSW) 07:43:41 437.505
Cosmos 2491 22 May 07:41:16 07:50:09 87° 83° (E) 07:58:58 435.465 / 435.565
AUBIESAT-1 22 May 07:48:56 07:53:06 38° 256° (WSW) 07:57:00 437.475
Cubesat XI-IV 22 May 07:49:39 07:54:51 51° 287° (WNW) 08:00:00 437.490
BRITE-PL 22 May 08:20:23 08:25:23 32° 94° (E) 08:30:18 437.365/2234.400
RS-15 22 May 08:20:44 08:27:58 22° 104° (ESE) 08:35:55 29.354- 29.394
PHONESAT 2.4 22 May 08:23:50 08:27:01 32° 4° (N) 08:30:12 2401.200-2431.200
AIST 1 22 May 08:29:03 08:33:15 45° 80° (E) 08:37:28
YUBILEINY 22 May 08:30:09 08:38:58 88° 92° (E) 08:47:46 435.215
DOVE 4 22 May 08:41:07 08:44:37 19° 91° (E) 08:48:11 437.250
SEEDS 22 May 08:49:23 08:51:38 15° 92° (E) 08:54:05 437.485
GOMX 1 22 May 08:50:43 08:55:46 39° 96° (E) 09:00:37 467.674
HO-68 22 May 08:55:11 09:01:26 33° 96° (E) 09:07:48 435.675
CINEMA 3 22 May 09:00:16 09:02:07 12° 88° (E) 09:04:14 145.822/145.860
VERMONT LUNAR 22 May 09:00:27 09:03:40 83° 22° (NNE) 09:06:53 437.305
ISS 22 May 09:04:36 09:07:49 57° 225° (SW) 09:11:01 145.825
COMPASS 1 22 May 09:10:41 09:13:48 21° 94° (E) 09:17:01 437.405
Cosmos 2504 22 May 09:23:28 09:28:11 17° 84° (E) 09:33:15 435.465 / 435.565
AAUSAT CUBESAT 2 22 May 09:27:10 09:30:43 28° 96° (E) 09:34:19 437.432
UNISAT 6 22 May 09:34:10 09:35:56 12° 67° (ENE) 09:37:58 437.425
Oscar 11 22 May 09:40:56 09:43:51 18° 93° (E) 09:46:54 145.826/435.025
Cosmos 2491 22 May 09:40:58 09:46:02 16° 279° (W) 09:50:27 435.465 / 435.565
CANX-2 22 May 09:47:56 09:52:09 73° 284° (WNW) 09:56:20 2200.000
UWE-3 22 May 09:49:30 09:52:12 16° 91° (E) 09:55:02 435.000/436.395/437.385
CUTE 1.7 + AOD 2 22 May 09:52:21 09:56:33 72° 283° (WNW) 10:00:44 437.475
BRITE-PL 22 May 09:58:49 10:03:48 31° 290° (WNW) 10:08:34 437.365/2234.400
PHONESAT 2.4 22 May 10:01:59 10:05:26 71° 19° (NNE) 10:08:55 2401.200-2431.200
AIST 1 22 May 10:08:44 10:10:32 12° 273° (W) 10:12:05
FUNcube-1 22 May 10:13:30 10:16:56 23° 94° (E) 10:20:24 145.935
ANTELSAT 22 May 10:14:38 10:18:51 34° 72° (ENE) 10:23:07 437.575/2403.000
DOVE 4 22 May 10:17:42 10:22:38 42° 287° (WNW) 10:27:16 437.250
SEEDS 22 May 10:23:46 10:27:38 36° 286° (WNW) 10:31:25 437.485
CUBEBUG 2 22 May 10:25:53 10:30:20 57° 99° (E) 10:34:36 437.445
RS-15 22 May 10:28:21 10:39:15 80° 300° (WNW) 10:50:26 29.354- 29.394
GOMX 1 22 May 10:29:19 10:33:38 24° 291° (WNW) 10:37:40 467.674
DELFI C3 22 May 10:30:03 10:33:58 51° 100° (E) 10:37:52 145.870
YUBILEINY 22 May 10:31:47 10:37:10 16° 296° (WNW) 10:41:58 435.215
CINEMA 3 22 May 10:35:06 10:39:48 54° 285° (WNW) 10:44:16 145.822/145.860
POLYITAN 1 22 May 10:38:17 10:41:49 26° 71° (ENE) 10:45:27 437.675
PCSat 22 May 10:38:26 10:42:19 20° 50° (NE) 10:46:21 145.827
VERMONT LUNAR 22 May 10:38:29 10:40:38 16° 215° (SW) 10:42:43 437.305
QB50P1 22 May 10:39:20 10:42:51 26° 71° (ENE) 10:46:29 145.935-145.965
HO-68 22 May 10:42:37 10:49:16 41° 292° (WNW) 10:55:46 435.675
COMPASS 1 22 May 10:46:02 10:49:28 25° 288° (WNW) 10:52:49 437.405
BUGSAT 1 22 May 10:48:53 10:51:59 22° 70° (ENE) 10:55:14 437.445
TIGRISAT 22 May 10:49:28 10:54:11 82° 75° (ENE) 10:58:53 435.000
ZACube-1 22 May 10:51:01 10:55:24 70° 101° (E) 10:59:38 437.345
VELOX 1 22 May 10:59:13 11:02:13 18° 93° (E) 11:05:22 145.980
AAUSAT CUBESAT 2 22 May 11:03:12 11:06:11 19° 290° (WNW) 11:09:01 437.432
UKube-1 22 May 11:04:11 11:08:17 40° 99° (E) 11:12:24 .
DX 1 22 May 11:04:55 11:09:08 45° 100° (E) 11:13:21 434.975-435.025
UNISAT 6 22 May 11:07:36 11:12:16 61° 260° (W) 11:16:56 437.425
NANOSAT C BR1 22 May 11:11:56 11:16:08 65° 76° (ENE) 11:20:23 145.865
Cosmos 2504 22 May 11:12:18 11:20:55 80° 277° (W) 11:29:00 435.465 / 435.565
CUBEBUG 1 22 May 11:13:51 11:15:40 13° 91° (E) 11:17:46 437.445
QB50P2 22 May 11:15:53 11:20:08 76° 77° (ENE) 11:24:27 145.880/145.840
Oscar 11 22 May 11:16:18 11:20:07 31° 288° (WNW) 11:23:52 145.826/435.025
UWE-3 22 May 11:24:51 11:28:55 36° 288° (WNW) 11:32:51 435.000/436.395/437.385
AISAT 22 May 11:27:55 11:32:09 40° 98° (E) 11:36:24 437.250
HUMSAT D 22 May 11:28:42 11:32:54 86° 101° (E) 11:37:02 437.325/437.525
POPSAT HIP 1 22 May 11:29:32 11:33:47 76° 257° (WSW) 11:38:06 437.405
DUCHIFAT 1 22 May 11:35:58 11:40:11 65° 259° (W) 11:44:26 145.980
PHONESAT 2.4 22 May 11:40:36 11:43:22 22° 214° (SW) 11:46:05 2401.200-2431.200
FUNcube-1 22 May 11:49:39 11:53:14 25° 289° (WNW) 11:56:39 145.935
ANTELSAT 22 May 11:52:09 11:55:43 20° 267° (W) 11:59:08 437.575/2403.000
JUGNU 22 May 12:03:28 12:04:49 11° 166° (SSE) 12:06:17 437.505
50 SAT 22 May 12:03:32 12:07:24 60° 283° (WNW) 12:11:10 437.505
CUBEBUG 2 22 May 12:04:51 12:06:32 12° 294° (WNW) 12:07:55 437.445
DELFI C3 22 May 12:07:53 12:08:41 10° 292° (WNW) 12:09:14 145.870
SPROUT 22 May 12:12:36 12:15:05 15° 92° (E) 12:17:46 437.525
POLYITAN 1 22 May 12:14:18 12:17:43 22° 266° (W) 12:21:02 437.675
QB50P1 22 May 12:15:21 12:18:42 22° 266° (W) 12:21:58 145.935-145.965
ESTCUBE 1 22 May 12:16:28 12:21:01 83° 103° (ESE) 12:25:33 437.505/2401.250
Oscar 19 22 May 12:17:02 12:18:40 12° 64° (ENE) 12:20:37 437.125/150
PCSat 22 May 12:20:51 12:26:07 52° 248° (WSW) 12:31:20 145.827
BUGSAT 1 22 May 12:23:57 12:27:21 24° 265° (W) 12:30:45 437.445
VELOX 1 22 May 12:34:49 12:38:53 34° 288° (WNW) 12:42:55 145.980
CUSAT 1 22 May 12:39:57 12:44:36 21° 83° (E) 12:50:10 437.405
UKube-1 22 May 12:41:29 12:44:07 15° 292° (WNW) 12:46:35 .
DX 1 22 May 12:42:36 12:45:02 14° 293° (WNW) 12:47:16 434.975-435.025
RS-15 22 May 12:45:26 12:53:51 23° 327° (NNW) 13:02:08 29.354- 29.394
CUBEBUG 1 22 May 12:48:04 12:52:21 48° 286° (WNW) 12:56:37 437.445
TISAT 1 22 May 12:55:24 12:59:20 35° 98° (E) 13:03:15 437.305
GONETS M04 22 May 12:59:37 13:06:48 30° 86° (E) 13:14:16
AISAT 22 May 13:05:34 13:08:27 16° 292° (WNW) 13:11:08 437.250
Cosmos 2504 22 May 13:11:53 13:15:41 13° 296° (WNW) 13:18:43 435.465 / 435.565
DANDE 22 May 13:14:47 13:20:06 30° 86° (E) 13:26:40 436.750
SO-50 22 May 13:22:16 13:26:55 39° 54° (NE) 13:31:30 436.795
SPROUT 22 May 13:47:20 13:51:22 37° 287° (WNW) 13:55:20 437.525
JUGNU 22 May 13:49:30 13:53:06 17° 176° (S) 13:56:45 437.505
Oscar 19 22 May 13:52:15 13:57:27 76° 259° (W) 14:02:41 437.125/150
ITAMSAT 1 22 May 13:55:35 14:00:04 32° 70° (ENE) 14:04:40 435.822/435.867
Gurwin Techsat 1B 22 May 14:02:51 14:07:34 35° 71° (ENE) 14:12:23 435.225
Cosmos 2499 22 May 14:10:07 14:12:13 12° 82° (E) 14:15:00 435.465 / 435.565
CUSAT 1 22 May 14:19:54 14:26:25 66° 282° (WNW) 14:34:23 437.405
ITUPSAT 1 22 May 14:30:54 14:35:37 60° 100° (E) 14:40:22 437.325
TISAT 1 22 May 14:32:04 14:34:51 17° 291° (WNW) 14:37:28 437.305
BEESAT 22 May 14:41:56 14:46:44 82° 103° (ESE) 14:51:30 436.000
SWISSCUBE 22 May 14:49:36 14:54:23 75° 283° (WNW) 14:59:08 437.505
GONETS M04 22 May 14:54:44 15:03:18 52° 283° (WNW) 15:11:50
DANDE 22 May 14:56:54 15:02:59 44° 287° (WNW) 15:10:28 436.750
SRMSAT 22 May 14:57:01 15:00:21 16° 172° (S) 15:03:45 437.500
SO-50 22 May 15:03:26 15:07:15 22° 249° (WSW) 15:10:51 436.795
RS-15 22 May 15:08:27 15:12:26 12° 2° (N) 15:16:32 29.354- 29.394
AO-7 22 May 15:25:56 15:33:39 47° 66° (ENE) 15:41:30 29.400- 29.500
JAS-2 22 May 15:28:36 15:35:14 46° 73° (ENE) 15:41:14 435.910
ITAMSAT 1 22 May 15:35:18 15:39:36 26° 265° (W) 15:43:49 435.822/435.867
JUGNU 22 May 15:37:51 15:41:25 16° 186° (S) 15:44:56 437.505
Gurwin Techsat 1B 22 May 15:43:18 15:47:38 24° 266° (W) 15:51:51 435.225
STARS 22 May 15:49:03 15:53:18 44° 99° (E) 15:57:32 437.465
HORYU 2 22 May 15:54:56 15:59:26 83° 76° (ENE) 16:03:57 437.375
Cosmos 2499 22 May 15:56:09 16:04:35 81° 94° (E) 16:12:24 435.465 / 435.565
KKS-1 22 May 16:08:32 16:12:59 63° 285° (WNW) 16:17:24 437.445
CUSAT 1 22 May 16:09:08 16:11:12 11° 305° (NW) 16:12:40 437.405
ITUPSAT 1 22 May 16:10:53 16:13:05 13° 294° (WNW) 16:15:01 437.325
O/OREOS (USA 219) 22 May 16:35:24 16:39:52 60° 107° (ESE) 16:44:19 437.305
SRMSAT 22 May 16:45:00 16:48:49 18° 182° (S) 16:52:38 437.500
MOZHAYETS 4 22 May 17:01:14 17:05:19 33° 96° (E) 17:09:28
CUTE-I 22 May 17:12:28 17:15:01 14° 65° (ENE) 17:17:51 437.470
JAS-2 22 May 17:14:28 17:20:26 27° 265° (W) 17:25:42 435.910
AO-7 22 May 17:19:11 17:26:37 35° 263° (W) 17:33:56 29.400- 29.500
RS-15 22 May 17:21:41 17:30:47 27° 37° (NE) 17:40:34 29.354- 29.394
STARS 22 May 17:26:53 17:29:25 15° 292° (WNW) 17:31:44 437.465
Cubesat XI-IV 22 May 17:30:03 17:33:55 22° 68° (ENE) 17:37:56 437.490
Cosmos 2499 22 May 17:53:21 17:58:36 17° 293° (WNW) 18:03:11 435.465 / 435.565
O/OREOS (USA 219) 22 May 18:17:57 18:19:46 12° 305° (NW) 18:21:21 437.305
CUBESAT XI-V 22 May 18:26:26 18:29:54 21° 93° (E) 18:33:30 437.345
SRMSAT 22 May 18:34:41 18:37:16 13° 192° (SSW) 18:39:48 437.500
BEESAT 2 22 May 18:35:39 18:38:35 20° 111° (ESE) 18:41:40 435.950
MOZHAYETS 4 22 May 18:39:00 18:42:22 20° 290° (WNW) 18:45:36
YUBILEINY 22 May 18:44:53 18:52:42 37° 74° (ENE) 19:00:39 435.215
Cosmos 2491 22 May 18:45:07 18:50:32 19° 83° (E) 18:56:31 435.465 / 435.565
PRISM 22 May 18:46:34 18:48:23 13° 92° (E) 18:50:26 437.425
CUTE-I 22 May 18:49:21 18:54:36 65° 259° (WSW) 18:59:54 437.470
Cubesat XI-IV 22 May 19:08:45 19:13:46 41° 262° (W) 19:18:46 437.490
M-CUBED/EXP-1 PRIME 22 May 19:22:02 19:22:47 11° 97° (E) 19:23:43 437.505
HO-68 22 May 19:22:11 19:26:40 19° 61° (ENE) 19:31:29 435.675
STRAND 1 22 May 19:22:31 19:27:07 33° 97° (E) 19:31:46 437.568
BRITE-PL 22 May 19:28:21 19:32:09 24° 68° (ENE) 19:36:20 437.365/2234.400
BEESAT 3 22 May 19:30:13 19:34:16 72° 300° (WNW) 19:38:23 437.485
AIST 2 22 May 19:31:28 19:34:48 23° 112° (ESE) 19:38:15 435.215
RS-15 22 May 19:33:23 19:45:09 88° 63° (ENE) 19:57:23 29.354- 29.394
AUBIESAT-1 22 May 19:34:05 19:35:48 14° 98° (E) 19:37:38 437.475
DOVE 4 22 May 19:44:11 19:46:45 15° 66° (ENE) 19:49:36 437.250
GOMX 1 22 May 19:55:33 19:59:44 29° 70° (ENE) 20:04:14 467.674
COMPASS 1 22 May 20:01:25 20:02:04 10° 67° (ENE) 20:02:58 437.405
CUBESAT XI-V 22 May 20:03:12 20:07:24 33° 288° (WNW) 20:11:33 437.345
BEESAT 2 22 May 20:12:50 20:16:30 30° 306° (NW) 20:20:11 435.950
AAUSAT CUBESAT 2 22 May 20:16:21 20:18:23 14° 69° (ENE) 20:20:37 437.432
PRISM 22 May 20:20:10 20:24:05 40° 286° (WNW) 20:27:58 437.425
Oscar 11 22 May 20:35:14 20:35:45 10° 67° (ENE) 20:36:33 145.826/435.025
CANX-2 22 May 20:37:28 20:41:37 51° 75° (ENE) 20:45:47 2200.000
Cosmos 2491 22 May 20:37:49 20:46:36 75° 278° (W) 20:55:27 435.465 / 435.565
YUBILEINY 22 May 20:41:36 20:49:36 41° 271° (W) 20:57:27 435.215
CUTE 1.7 + AOD 2 22 May 20:41:48 20:45:56 51° 75° (ENE) 20:50:06 437.475
UWE-3 22 May 20:45:18 20:46:22 11° 66° (ENE) 20:47:44 435.000/436.395/437.385
M-CUBED/EXP-1 PRIME 22 May 20:54:55 20:57:50 28° 292° (WNW) 21:00:41 437.505
AIST 1 22 May 20:55:29 20:59:11 30° 91° (E) 21:02:58
STRAND 1 22 May 21:02:00 21:06:11 25° 291° (WNW) 21:10:14 437.568
BRITE-PL 22 May 21:06:05 21:10:28 34° 265° (W) 21:15:09 437.365/2234.400
HO-68 22 May 21:06:32 21:13:44 76° 256° (WSW) 21:20:57 435.675
FUNcube-1 22 May 21:07:04 21:09:29 15° 68° (ENE) 21:12:06 145.935
AUBIESAT-1 22 May 21:07:59 21:10:40 22° 293° (WNW) 21:13:17 437.475
AIST 2 22 May 21:09:34 21:13:16 28° 307° (NW) 21:16:58 435.215
Cosmos 2504 22 May 21:09:56 21:15:50 27° 72° (ENE) 21:21:53 435.465 / 435.565
SEEDS 22 May 21:11:59 21:16:14 82° 258° (WSW) 21:20:29 437.485
DELFI C3 22 May 21:15:02 21:18:01 21° 71° (ENE) 21:21:05 145.870
DOVE 4 22 May 21:19:04 21:23:57 60° 261° (W) 21:29:06 437.250
CUBEBUG 2 22 May 21:20:36 21:24:50 34° 72° (ENE) 21:29:10 437.445
CINEMA 3 22 May 21:32:34 21:37:28 87° 262° (W) 21:42:31 145.822/145.860
COMPASS 1 22 May 21:33:11 21:37:19 56° 260° (W) 21:41:27 437.405
GOMX 1 22 May 21:33:32 21:37:48 28° 266° (W) 21:42:14 467.674
ZACube-1 22 May 21:43:30 21:47:43 38° 73° (ENE) 21:51:59 437.345
RS-15 22 May 21:48:11 21:56:35 21° 256° (WSW) 22:04:19 29.354- 29.394
AAUSAT CUBESAT 2 22 May 21:49:43 21:53:40 41° 262° (W) 21:57:38 437.432
VELOX 1 22 May 21:55:36 21:56:58 12° 66° (ENE) 21:58:35 145.980
UKube-1 22 May 21:56:27 21:59:50 23° 70° (ENE) 22:03:19 .
DX 1 22 May 21:57:49 22:01:24 26° 71° (ENE) 22:05:04 434.975-435.025
Oscar 11 22 May 22:07:11 22:11:29 61° 260° (W) 22:15:47 145.826/435.025
CANX-2 22 May 22:16:40 22:17:55 11° 270° (W) 22:18:51 2200.000
HUMSAT D 22 May 22:17:07 22:21:08 39° 74° (ENE) 22:25:11 437.325/437.525
UWE-3 22 May 22:17:43 22:22:22 69° 259° (W) 22:27:04 435.000/436.395/437.385
CUTE 1.7 + AOD 2 22 May 22:21:04 22:22:13 11° 270° (W) 22:23:05 437.475
AISAT 22 May 22:23:03 22:26:37 25° 70° (ENE) 22:30:19 437.250
AIST 1 22 May 22:34:06 22:36:57 17° 287° (WNW) 22:39:40
FUNcube-1 22 May 22:41:00 22:45:26 48° 261° (W) 22:49:53 145.935
Cosmos 2491 22 May 22:41:46 22:45:22 12° 300° (WNW) 22:48:12 435.465 / 435.565
50 SAT 22 May 22:44:48 22:48:37 45° 75° (ENE) 22:52:29 437.505
TIGRISAT 22 May 22:45:39 22:48:52 20° 93° (E) 22:52:10 435.000
DELFI C3 22 May 22:49:40 22:53:01 24° 265° (W) 22:56:18 145.870
CUBEBUG 2 22 May 22:57:59 23:01:36 21° 267° (W) 23:05:07 437.445
NANOSAT C BR1 22 May 23:01:49 23:03:50 13° 91° (E) 23:06:04 145.865
Cosmos 2504 22 May 23:02:42 23:09:28 44° 270° (W) 23:16:07 435.465 / 435.565
UNISAT 6 22 May 23:03:21 23:07:21 34° 97° (E) 23:11:19 437.425
QB50P2 22 May 23:05:48 23:08:20 16° 92° (E) 23:11:03 145.880/145.840
ESTCUBE 1 22 May 23:12:55 23:17:14 50° 74° (ENE) 23:21:35 437.505/2401.250
GONETS M04 22 May 23:16:55 23:18:35 11° 59° (ENE) 23:21:04
POPSAT HIP 1 22 May 23:18:42 23:22:00 22° 94° (E) 23:25:22 437.405
ZACube-1 22 May 23:21:04 23:24:14 18° 268° (W) 23:27:14 437.345
CUSAT 1 22 May 23:23:11 23:26:30 14° 58° (ENE) 23:29:58 437.405
DUCHIFAT 1 22 May 23:24:27 23:27:57 25° 95° (E) 23:31:30 145.980
VELOX 1 22 May 23:28:44 23:33:05 57° 260° (W) 23:37:28 145.980
UKube-1 22 May 23:32:16 23:35:53 25° 264° (W) 23:39:26 .
DX 1 22 May 23:34:09 23:37:37 22° 265° (W) 23:41:00 434.975-435.025
CUBEBUG 1 22 May 23:40:39 23:44:59 88° 257° (WSW) 23:49:23 437.445
TISAT 1 22 May 23:45:20 23:48:11 18° 69° (ENE) 23:51:11 437.305
ANTELSAT 22 May 23:46:15 23:50:40 71° 284° (WNW) 23:54:57 437.575/2403.000
HUMSAT D 22 May 23:54:30 23:57:05 15° 268° (W) 23:59:28 437.325/437.525
AISAT 22 May 23:59:29 00:03:09 25° 265° (W) 00:06:46 437.250
DANDE 23 May 00:00:32 00:06:40 24° 64° (ENE) 00:12:13 436.750
POLYITAN 1 23 May 00:01:51 00:06:09 77° 102° (ESE) 00:10:24 437.675
QB50P1 23 May 00:02:31 00:06:49 77° 102° (ESE) 00:11:04 145.935-145.965
ISS 23 May 00:06:01 00:08:22 19° 130° (SE) 00:10:46 145.825
BUGSAT 1 23 May 00:08:25 00:12:39 58° 101° (E) 00:16:51 437.445
TIGRISAT 23 May 00:21:51 00:25:41 28° 289° (WNW) 00:29:21 435.000
50 SAT 23 May 00:22:25 00:23:38 11° 270° (W) 00:24:34 437.505
NANOSAT C BR1 23 May 00:35:52 00:39:56 41° 286° (WNW) 00:43:55 145.865
SPROUT 23 May 00:37:43 00:42:01 75° 259° (WSW) 00:46:21 437.525
QB50P2 23 May 00:40:27 00:44:24 35° 287° (WNW) 00:48:16 145.880/145.840
UNISAT 6 23 May 00:40:54 00:43:54 18° 291° (WNW) 00:46:43 437.425
ESTCUBE 1 23 May 00:52:32 00:54:28 12° 270° (W) 00:56:07 437.505/2401.250
POPSAT HIP 1 23 May 00:54:15 00:57:51 26° 289° (WNW) 01:01:22 437.405
DUCHIFAT 1 23 May 01:00:15 01:03:40 23° 289° (WNW) 01:06:57 145.980
CUSAT 1 23 May 01:03:13 01:10:49 88° 81° (E) 01:16:42 437.405
GONETS M04 23 May 01:08:42 01:17:29 70° 81° (E) 01:26:11
PCSat 23 May 01:16:29 01:21:10 32° 109° (ESE) 01:25:58 145.827
TISAT 1 23 May 01:19:59 01:23:45 31° 263° (W) 01:27:32 437.305
ITUPSAT 1 23 May 01:34:35 01:39:08 48° 74° (ENE) 01:43:44 437.325
ISS 23 May 01:41:39 01:44:38 32° 324° (NW) 01:47:37 145.825
DANDE 23 May 01:42:47 01:50:43 61° 267° (W) 01:57:02 436.750
BEESAT 23 May 01:45:09 01:49:50 65° 75° (ENE) 01:54:33 436.000
BUGSAT 1 23 May 01:46:37 01:47:39 11° 293° (WNW) 01:48:26 437.445
SWISSCUBE 23 May 01:52:49 01:57:34 86° 76° (ENE) 02:02:20 437.505
Cosmos 2499 23 May 01:52:52 01:57:36 20° 69° (ENE) 02:02:39 435.465 / 435.565
Oscar 19 23 May 02:07:16 02:12:16 49° 100° (E) 02:17:14 437.125/150
ITAMSAT 1 23 May 02:12:50 02:15:31 15° 91° (E) 02:18:28 435.822/435.867
Gurwin Techsat 1B 23 May 02:23:04 02:26:31 18° 92° (E) 02:30:11 435.225
STARS 23 May 02:43:09 02:46:50 27° 71° (ENE) 02:50:36 437.465
O/OREOS (USA 219) 23 May 02:48:32 02:52:59 67° 69° (ENE) 02:57:26 437.305
CUSAT 1 23 May 02:49:11 02:52:08 12° 281° (W) 02:54:24 437.405
PCSat 23 May 02:59:47 03:04:35 31° 305° (NW) 03:09:19 145.827
KKS-1 23 May 03:03:11 03:07:39 78° 75° (ENE) 03:12:09 437.445
GONETS M04 23 May 03:07:20 03:13:35 21° 277° (W) 03:19:21
VERMONT LUNAR 23 May 03:13:07 03:16:05 35° 150° (SSE) 03:19:04 437.305
ITUPSAT 1 23 May 03:14:38 03:17:21 14° 269° (W) 03:19:49 437.325
BEESAT 23 May 03:27:10 03:28:13 10° 271° (W) 03:28:52 436.000
AO-7 23 May 03:32:58 03:37:37 17° 90° (E) 03:42:50 29.400- 29.500
SO-50 23 May 03:34:11 03:37:55 25° 111° (ESE) 03:41:51 436.795
Cosmos 2499 23 May 03:44:25 03:51:21 60° 267° (W) 03:58:19 435.465 / 435.565
Oscar 19 23 May 03:47:50 03:51:15 17° 293° (WNW) 03:54:27 437.125/150
ITAMSAT 1 23 May 03:50:19 03:55:26 56° 287° (WNW) 04:00:32 435.822/435.867
HORYU 2 23 May 03:50:21 03:53:33 20° 94° (E) 03:56:52 437.375
BEESAT 3 23 May 03:52:20 03:55:41 25° 52° (NE) 03:59:03 437.485
MOZHAYETS 4 23 May 04:00:36 04:04:04 22° 70° (ENE) 04:07:40
Gurwin Techsat 1B 23 May 04:01:42 04:06:48 47° 287° (WNW) 04:11:51 435.225
STARS 23 May 04:19:41 04:23:15 23° 265° (W) 04:26:45 437.465
